Weather History for KMHK - November, 2013

Change the Weather History Date:

Monday, November 25, 2013

  Actual Average Record
Temperature  
Mean Temperature 32 °F 38 °F  
Max Temperature 41 °F 50 °F 66 °F (1997)
Min Temperature 22 °F 26 °F 15 °F (2010)
Degree Days  
Heating Degree Days 33 27  
Month to date heating degree days 567 535  
Since 1 July heating degree days 919 934  
Cooling Degree Days 0 0  
Month to date cooling degree days 0 0  
Year to date cooling degree days 1513 1361  
Moisture  
Dew Point 19 °F    
Average Humidity 70    
Maximum Humidity 96    
Minimum Humidity 43    
Precipitation  
Precipitation 0.00 in 0.04 in 0.24 in (2011)
Month to date precipitation 0.54 1.43  
Year to date precipitation 28.60 31.36  
Sea Level Pressure  
Sea Level Pressure 30.24 in    
Wind  
Wind Speed 6 mph (SW)    
Max Wind Speed 14 mph    
Max Gust Speed 17 mph    
Visibility 10 miles    
Events      
T = Trace of Precipitation, MM = Missing Value Source: NWS Daily Summary

Daily Weather History Graph

Daily Weather History Graph

Search for Another Location

Airport or City:

Trip Planner

Search our weather history database for the weather conditions in past years. The results will help you decide how hot, cold, wet, or windy it might be!

Date:

Astronomy

Nov. 25, 2013 Rise Set
Actual Time 7:21 AM CST 5:06 PM CST
Civil Twilight 6:51 AM CST 5:35 PM CST
Nautical Twilight 6:18 AM CST 6:08 PM CST
Astronomical Twilight 5:46 AM CST 6:40 PM CST
Moon No Moon Rise 12:40 PM CST
Length of Visible Light 10h 43m
Length of Day
9h 45m
Waning Gibbous, 51% of the Moon is Illuminated
Nov 25
Waning Gibbous
Nov 25
Last Quarter
Dec 2
New
Dec 9
First Quarter
Dec 17
Full

Hourly Weather History & Observations

Time (CST) Temp. Windchill Dew Point Humidity Pressure Visibility Wind Dir Wind Speed Gust Speed Precip Events Conditions
12:52 AM 28.0 °F 19.3 °F 10.9 °F 49% 30.29 in 10.0 mi SSW 9.2 mph - N/A   Mostly Cloudy
1:52 AM 28.9 °F 20.4 °F 12.0 °F 49% 30.28 in 10.0 mi SSW 9.2 mph - N/A   Mostly Cloudy
2:44 AM 30.0 °F 21.7 °F 12.9 °F 49% 30.23 in 10.0 mi SSW 9.2 mph - N/A   Overcast
2:52 AM 28.9 °F 21.9 °F 12.9 °F 51% 30.26 in 10.0 mi SSW 6.9 mph - N/A   Overcast
3:12 AM 28.9 °F 22.8 °F 12.9 °F 51% 30.22 in 10.0 mi SSW 5.8 mph - N/A   Overcast
3:52 AM 30.0 °F 23.2 °F 14.0 °F 51% 30.25 in 10.0 mi SSW 6.9 mph - N/A   Overcast
4:52 AM 30.0 °F 23.2 °F 14.0 °F 51% 30.25 in 10.0 mi SW 6.9 mph - N/A   Overcast
5:52 AM 28.9 °F 21.9 °F 15.1 °F 56% 30.24 in 10.0 mi SSW 6.9 mph - N/A   Overcast
6:52 AM 28.9 °F 21.1 °F 16.0 °F 58% 30.24 in 10.0 mi SSW 8.1 mph - N/A   Overcast
7:52 AM 27.0 °F - 16.0 °F 63% 30.25 in 10.0 mi Calm Calm - N/A   Mostly Cloudy
8:52 AM 28.9 °F - 16.0 °F 58% 30.26 in 10.0 mi Calm Calm - N/A   Overcast
9:52 AM 33.1 °F 24.4 °F 18.0 °F 54% 30.25 in 10.0 mi SW 11.5 mph - N/A   Overcast
10:52 AM 35.1 °F 29.3 °F 19.9 °F 54% 30.25 in 10.0 mi WSW 6.9 mph - N/A   Overcast
11:52 AM 37.0 °F 29.8 °F 21.9 °F 54% 30.23 in 10.0 mi WSW 10.4 mph - N/A   Mostly Cloudy
12:52 PM 37.9 °F 32.1 °F 23.0 °F 55% 30.23 in 10.0 mi West 8.1 mph - N/A   Overcast
1:52 PM 39.0 °F 32.8 °F 24.1 °F 55% 30.21 in 10.0 mi West 9.2 mph - N/A   Overcast
2:52 PM 39.9 °F 33.9 °F 25.0 °F 55% 30.20 in 10.0 mi West 9.2 mph - N/A   Clear
3:52 PM 39.9 °F 34.5 °F 26.1 °F 58% 30.21 in 10.0 mi West 8.1 mph - N/A   Clear
4:52 PM 37.0 °F 34.5 °F 26.1 °F 65% 30.21 in 10.0 mi WSW 3.5 mph - N/A   Clear
5:52 PM 32.0 °F 27.5 °F 25.0 °F 75% 30.22 in 10.0 mi WSW 4.6 mph - N/A   Clear
6:52 PM 26.1 °F - 21.9 °F 84% 30.23 in 10.0 mi Calm Calm - N/A   Clear
7:52 PM 27.0 °F 23.0 °F 23.0 °F 85% 30.25 in 10.0 mi WSW 3.5 mph - N/A   Clear
8:52 PM 27.0 °F - 23.0 °F 85% 30.25 in 10.0 mi Calm Calm - N/A   Clear
9:52 PM 26.1 °F - 23.0 °F 88% 30.25 in 9.0 mi Calm Calm - N/A   Clear
10:52 PM 23.0 °F 18.4 °F 21.9 °F 96% 30.26 in 9.0 mi WSW 3.5 mph - N/A   Clear
11:52 PM 21.9 °F - 19.9 °F 92% 30.27 in 8.0 mi Calm Calm - N/A   Clear